Starlink 32316

operational
NORAD ID: 61860 Int'l Des: 2024-202 Owner: SPXS Country: US Constellation: starlink
LEOCIRCULAR

Über Starlink 32316

Beschreibung wird geladen...

Live-Position

3D-Globus wird geladen...

Nächste Überflüge

Höhenverlauf

Altitude vs Time

uPlot chart will show altitude changes over time

Zweizeiliger Elementsatz

1 61860U 24202R 26036.08588645 -.00002811 00000-0 -92705-4 0 9993
2 61860 42.9973 58.4524 0000457 265.5738 94.5061 15.27577047 70385
Epoch: 5. Feb. 2026 • Age: 9 hours

Aktueller Status

Höhe 482.9 km
Geschwindigkeit 7.63 km/s
Subsatellitenpunkt -0.07°S, 108.39°E
Startdatum 7. Nov. 2024
Alter 1.2 years
Typ internet

Technische Details

Klassifizierung Payload
Masse 730.00 kg
Trockenmasse 700.00 kg
Gesamtmasse 730.00 kg
Länge 0.30 m
Durchmesser 4.10 m
Spannweite 29.00 m
Form Box + pan
Hersteller SPXS
Bus-Typ Starlink V2M
Phasenstatus In Orbit
Besitzer/Staat SPXS/US

Große Konstellationen

Loading constellations...